| time (UTC) | temp F | wind direction | speed knots | gust knots | rain 1hr in | rain 24hr in | rain mn in | humidity % | barometer mb |
| 20260508233529 | 57 | 300 | 2.6 | 3.5 | 0.00 | 0.00 | 0.00 | 83 | 1010.7 |
| 20260508232526 | 57 | 286 | 2.6 | 5.2 | 0.00 | 0.00 | 0.00 | 83 | 1010.8 |
| 20260508231524 | 57 | 311 | 2.6 | 5.2 | 0.00 | 0.00 | 0.00 | 84 | 1010.8 |
| 20260508230521 | 57 | 288 | 3.5 | 5.2 | 0.00 | 0.00 | 0.00 | 84 | 1010.9 |
| 20260508225518 | 57 | 307 | 1.7 | 3.5 | 0.00 | 0.00 | 0.00 | 85 | 1010.8 |
| 20260508224516 | 56 | 280 | 3.5 | 5.2 | 0.00 | 0.00 | 0.00 | 86 | 1010.8 |
| 20260508223613 | 56 | 289 | 2.6 | 3.5 | 0.00 | 0.00 | 0.00 | 87 | 1010.9 |
| 20260508222611 | 56 | 293 | 3.5 | 5.2 | 0.00 | 0.00 | 0.00 | 87 | 1010.9 |
| 20260508221608 | 56 | 298 | 2.6 | 3.5 | 0.00 | 0.00 | 0.00 | 87 | 1011.0 |
| 20260508220606 | 56 | 313 | 1.7 | 3.5 | 0.00 | 0.00 | 0.00 | 87 | 1011.2 |
| 20260508215603 | 56 | 315 | 1.7 | 3.5 | 0.00 | 0.00 | 0.00 | 87 | 1011.0 |
| 20260508214600 | 56 | 302 | 2.6 | 3.5 | 0.00 | 0.00 | 0.00 | 87 | 1010.9 |
| 20260508213558 | 57 | 316 | 1.7 | 3.5 | 0.00 | 0.00 | 0.00 | 87 | 1011.0 |
| 20260508212555 | 57 | 307 | 0.9 | 3.5 | 0.00 | 0.00 | 0.00 | 86 | 1011.0 |
| 20260508211552 | 57 | 332 | 1.7 | 3.5 | 0.00 | 0.00 | 0.00 | 86 | 1011.0 |
| 20260508210550 | 58 | 8 | 0.9 | 1.7 | 0.00 | 0.00 | 0.00 | 86 | 1010.9 |
| 20260508205547 | 58 | 26 | 0.9 | 3.5 | 0.00 | 0.00 | 0.00 | 86 | 1011.0 |
| 20260508204545 | 58 | 350 | 1.7 | 3.5 | 0.00 | 0.00 | 0.00 | 86 | 1011.0 |
| 20260508203542 | 58 | 356 | 0.9 | 3.5 | 0.00 | 0.00 | 0.00 | 86 | 1010.8 |
| 20260508202539 | 58 | 27 | 1.7 | 5.2 | 0.00 | 0.00 | 0.00 | 86 | 1010.6 |
| 20260508201537 | 58 | 7 | 2.6 | 5.2 | 0.00 | 0.00 | 0.00 | 86 | 1010.4 |
| 20260508200534 | 58 | 316 | 1.7 | 3.5 | 0.00 | 0.00 | 0.00 | 86 | 1010.5 |
| 20260508195531 | 58 | 1 | 0.9 | 3.5 | 0.00 | 0.00 | 0.00 | 85 | 1010.2 |
| 20260508194529 | 59 | 352 | 1.7 | 3.5 | 0.00 | 0.00 | 0.00 | 84 | 1010.2 |
| 20260508193526 | 59 | 352 | 2.6 | 6.1 | 0.00 | 0.00 | 0.00 | 83 | 1010.1 |
| 20260508192524 | 59 | 347 | 2.6 | 5.2 | 0.00 | 0.00 | 0.00 | 82 | 1010.0 |
| 20260508191521 | 59 | 16 | 3.5 | 6.1 | 0.00 | 0.00 | 0.00 | 81 | 1009.9 |
| 20260508190518 | 59 | 151 | 1.7 | 6.1 | 0.00 | 0.00 | 0.00 | 80 | 1009.8 |
| 20260508185516 | 60 | 45 | 2.6 | 5.2 | 0.00 | 0.00 | 0.00 | 80 | 1009.9 |
| 20260508184613 | 60 | 17 | 3.5 | 7.0 | 0.00 | 0.00 | 0.00 | 80 | 1009.9 |
| 20260508183611 | 60 | 58 | 2.6 | 7.0 | 0.00 | 0.00 | 0.00 | 78 | 1009.7 |
| 20260508182608 | 61 | 357 | 1.7 | 5.2 | 0.00 | 0.00 | 0.00 | 77 | 1009.6 |
| 20260508181606 | 60 | 34 | 4.3 | 9.6 | 0.00 | 0.00 | 0.00 | 77 | 1009.5 |
| 20260508180603 | 61 | 134 | 1.7 | 3.5 | 0.00 | 0.00 | 0.00 | 76 | 1009.5 |
| 20260508175600 | 62 | 87 | 1.7 | 6.1 | 0.00 | 0.00 | 0.00 | 75 | 1009.5 |
| 20260508174558 | 62 | 75 | 2.6 | 7.0 | 0.00 | 0.00 | 0.00 | 75 | 1009.4 |
| 20260508172553 | 63 | 252 | 1.7 | 5.2 | 0.00 | 0.00 | 0.00 | 72 | 1009.3 |
| 20260508171550 | 62 | 166 | 1.7 | 3.5 | 0.00 | 0.00 | 0.00 | 71 | 1009.3 |
| 20260508170547 | 62 | 69 | 1.7 | 6.1 | 0.00 | 0.00 | 0.00 | 71 | 1009.2 |
| 20260508165545 | 63 | 68 | 2.6 | 9.6 | 0.00 | 0.00 | 0.00 | 69 | 1009.1 |
| 20260508164542 | 63 | 193 | 1.7 | 3.5 | 0.00 | 0.00 | 0.00 | 68 | 1009.1 |
| 20260508163540 | 64 | 59 | 1.7 | 5.2 | 0.00 | 0.00 | 0.00 | 69 | 1009.1 |
| 20260508162537 | 63 | 64 | 3.5 | 9.6 | 0.00 | 0.00 | 0.00 | 69 | 1008.9 |
| 20260508161534 | 63 | 33 | 5.2 | 7.8 | 0.00 | 0.00 | 0.00 | 69 | 1008.9 |
| 20260508160532 | 64 | 41 | 4.3 | 9.6 | 0.00 | 0.00 | 0.00 | 70 | 1009.1 |
| 20260508155530 | 64 | 58 | 4.3 | 11.3 | 0.00 | 0.00 | 0.00 | 71 | 1009.2 |
| 20260508154527 | 64 | 47 | 3.5 | 7.8 | 0.00 | 0.00 | 0.00 | 70 | 1009.3 |
| 20260508153525 | 64 | 82 | 1.7 | 7.8 | 0.00 | 0.00 | 0.00 | 70 | 1009.2 |
| 20260508152522 | 65 | 134 | 2.6 | 6.1 | 0.00 | 0.00 | 0.00 | 70 | 1009.2 |
| 20260508151519 | 65 | 117 | 2.6 | 7.0 | 0.00 | 0.00 | 0.00 | 69 | 1009.2 |
| 20260508150517 | 66 | 139 | 2.6 | 6.1 | 0.00 | 0.00 | 0.00 | 67 | 1009.0 |
| 20260508145614 | 66 | 62 | 3.5 | 7.8 | 0.00 | 0.00 | 0.00 | 63 | 1009.0 |
| 20260508144612 | 66 | 43 | 4.3 | 12.2 | 0.00 | 0.00 | 0.00 | 63 | 1009.0 |
| 20260508143609 | 66 | 38 | 4.3 | 11.3 | 0.00 | 0.00 | 0.00 | 62 | 1009.0 |
| 20260508142607 | 65 | 57 | 3.5 | 7.8 | 0.00 | 0.00 | 0.00 | 64 | 1009.0 |
| 20260508141604 | 66 | 101 | 3.5 | 9.6 | 0.00 | 0.00 | 0.00 | 64 | 1009.2 |
| 20260508140601 | 66 | 36 | 5.2 | 9.6 | 0.00 | 0.00 | 0.00 | 62 | 1009.4 |
| 20260508135559 | 67 | 37 | 3.5 | 9.6 | 0.00 | 0.00 | 0.00 | 62 | 1009.6 |
| 20260508134556 | 67 | 86 | 1.7 | 7.8 | 0.00 | 0.00 | 0.00 | 61 | 1009.5 |
| 20260508133554 | 67 | 110 | 1.7 | 3.5 | 0.00 | 0.00 | 0.00 | 58 | 1009.7 |
| 20260508132551 | 67 | 106 | 1.7 | 5.2 | 0.00 | 0.00 | 0.00 | 60 | 1009.8 |
| 20260508131548 | 66 | 89 | 1.7 | 5.2 | 0.00 | 0.00 | 0.00 | 60 | 1009.8 |
| 20260508130546 | 65 | 54 | 4.3 | 12.2 | 0.00 | 0.00 | 0.00 | 59 | 1009.7 |
| 20260508125543 | 67 | 30 | 1.7 | 7.8 | 0.00 | 0.00 | 0.00 | 55 | 1009.5 |
| 20260508124541 | 66 | 53 | 3.5 | 9.6 | 0.00 | 0.00 | 0.00 | 54 | 1009.7 |
| 20260508123538 | 66 | 115 | 3.5 | 12.2 | 0.00 | 0.00 | 0.00 | 59 | 1009.8 |
| 20260508122538 | 66 | 359 | 1.7 | 5.2 | 0.00 | 0.00 | 0.00 | 63 | 1009.6 |
| 20260508121533 | 67 | 44 | 3.5 | 9.6 | 0.00 | 0.00 | 0.00 | 59 | 1009.7 |
| 20260508120530 | 66 | 189 | 2.6 | 6.1 | 0.00 | 0.00 | 0.00 | 61 | 1009.8 |
| 20260508115527 | 65 | 143 | 1.7 | 9.6 | 0.00 | 0.00 | 0.00 | 62 | 1009.8 |
| 20260508114525 | 65 | 61 | 1.7 | 7.0 | 0.00 | 0.00 | 0.00 | 64 | 1009.6 |
| 20260508113522 | 66 | 5 | 1.7 | 7.0 | 0.00 | 0.00 | 0.00 | 60 | 1009.7 |
| 20260508112520 | 66 | 33 | 1.7 | 7.8 | 0.00 | 0.00 | 0.00 | 59 | 1009.7 |
| 20260508111517 | 64 | 58 | 4.3 | 9.6 | 0.00 | 0.00 | 0.00 | 63 | 1009.6 |
| 20260508110615 | 64 | 192 | 1.7 | 5.2 | 0.00 | 0.00 | 0.00 | 65 | 1009.6 |
| 20260508105612 | 64 | 73 | 1.7 | 6.1 | 0.00 | 0.00 | 0.00 | 65 | 1009.6 |
| 20260508104609 | 64 | 24 | 3.5 | 6.1 | 0.00 | 0.00 | 0.00 | 67 | 1009.7 |
| 20260508103607 | 64 | 354 | 3.5 | 9.6 | 0.00 | 0.00 | 0.00 | 65 | 1009.9 |
| 20260508102604 | 64 | 35 | 0.9 | 3.5 | 0.00 | 0.00 | 0.00 | 66 | 1009.8 |
| 20260508101602 | 66 | 298 | 0.9 | 5.2 | 0.00 | 0.00 | 0.00 | 64 | 1010.1 |
| 20260508100559 | 65 | 18 | 1.7 | 5.2 | 0.00 | 0.00 | 0.00 | 65 | 1010.0 |
| 20260508095556 | 63 | 29 | 2.6 | 5.2 | 0.00 | 0.00 | 0.00 | 69 | 1010.0 |
| 20260508094554 | 63 | 19 | 2.6 | 7.8 | 0.00 | 0.00 | 0.00 | 67 | 1010.0 |
| 20260508093551 | 63 | 7 | 0.9 | 5.2 | 0.00 | 0.00 | 0.00 | 68 | 1010.1 |
| 20260508092548 | 64 | 161 | 0.9 | 5.2 | 0.00 | 0.00 | 0.00 | 66 | 1010.1 |
| 20260508091546 | 63 | 54 | 1.7 | 5.2 | 0.00 | 0.00 | 0.00 | 66 | 1009.9 |
| 20260508090543 | 63 | 71 | 1.7 | 3.5 | 0.00 | 0.00 | 0.00 | 64 | 1009.9 |
| 20260508085540 | 63 | 51 | 2.6 | 7.0 | 0.00 | 0.00 | 0.00 | 60 | 1009.8 |
| 20260508084538 | 63 | 51 | 1.7 | 7.0 | 0.00 | 0.00 | 0.00 | 59 | 1009.7 |
| 20260508083535 | 63 | 37 | 2.6 | 6.1 | 0.00 | 0.00 | 0.00 | 63 | 1009.6 |
| 20260508082533 | 63 | 10 | 2.6 | 7.0 | 0.00 | 0.00 | 0.00 | 62 | 1009.3 |
| 20260508081530 | 64 | 113 | 0.0 | 1.7 | 0.00 | 0.00 | 0.00 | 60 | 1009.2 |
| 20260508080527 | 62 | 32 | 2.6 | 5.2 | 0.00 | 0.00 | 0.00 | 62 | 1009.1 |
| 20260508075525 | 63 | 110 | 0.9 | 3.5 | 0.00 | 0.00 | 0.00 | 60 | 1009.0 |
| 20260508074522 | 62 | 56 | 0.9 | 3.5 | 0.00 | 0.00 | 0.00 | 63 | 1009.0 |
| 20260508073520 | 63 | 105 | 0.9 | 3.5 | 0.00 | 0.00 | 0.00 | 61 | 1009.0 |
| 20260508072517 | 62 | 113 | 0.9 | 3.5 | 0.00 | 0.00 | 0.00 | 61 | 1008.8 |
| 20260508071514 | 62 | 68 | 0.0 | 1.7 | 0.00 | 0.00 | 0.00 | 62 | 1008.6 |
| 20260508070612 | 62 | 13 | 0.0 | 1.7 | 0.00 | 0.00 | 0.00 | 61 | 1008.5 |
| 20260508065610 | 60 | 351 | 0.9 | 3.5 | 0.00 | 0.00 | 0.00 | 64 | 1008.5 |
| 20260508064607 | 60 | 327 | 0.9 | 1.7 | 0.00 | 0.00 | 0.00 | 63 | 1008.6 |
| 20260508063604 | 59 | 16 | 1.7 | 3.5 | 0.00 | 0.00 | 0.00 | 62 | 1008.5 |
| 20260508062602 | 60 | 0.0 | 0.0 | 0.00 | 0.00 | 0.00 | 61 | 1008.5 | |
| 20260508061559 | 58 | 0.0 | 0.0 | 0.00 | 0.00 | 0.00 | 64 | 1008.4 | |
| 20260508060556 | 55 | 278 | 0.9 | 1.7 | 0.00 | 0.00 | 0.00 | 68 | 1008.3 |
| 20260508055554 | 53 | 230 | 0.9 | 1.7 | 0.00 | 0.00 | 0.00 | 73 | 1008.2 |
| 20260508054551 | 53 | 0.0 | 1.7 | 0.00 | 0.00 | 0.00 | 73 | 1008.4 | |
| 20260508053549 | 53 | 0.0 | 0.0 | 0.00 | 0.00 | 0.00 | 71 | 1008.1 | |
| 20260508052546 | 53 | 302 | 0.9 | 1.7 | 0.00 | 0.00 | 0.00 | 70 | 1008.0 |
| 20260508051543 | 53 | 296 | 1.7 | 1.7 | 0.00 | 0.00 | 0.00 | 70 | 1007.8 |
| 20260508050541 | 53 | 275 | 0.9 | 1.7 | 0.00 | 0.00 | 0.00 | 70 | 1007.7 |
| 20260508045538 | 52 | 269 | 0.9 | 1.7 | 0.00 | 0.00 | 0.00 | 72 | 1007.7 |
| 20260508044535 | 52 | 265 | 1.7 | 3.5 | 0.00 | 0.00 | 0.00 | 72 | 1007.8 |
| 20260508043533 | 53 | 240 | 1.7 | 3.5 | 0.00 | 0.00 | 0.00 | 71 | 1007.8 |
| 20260508042530 | 52 | 0.0 | 0.0 | 0.00 | 0.00 | 0.00 | 72 | 1007.7 | |
| 20260508041528 | 53 | 282 | 1.7 | 3.5 | 0.00 | 0.00 | 0.00 | 73 | 1007.6 |
| 20260508040525 | 52 | 315 | 0.9 | 1.7 | 0.00 | 0.00 | 0.00 | 76 | 1007.6 |
| 20260508035522 | 52 | 0.0 | 0.0 | 0.00 | 0.00 | 0.00 | 75 | 1007.4 | |
| 20260508034520 | 53 | 270 | 0.0 | 1.7 | 0.00 | 0.00 | 0.00 | 74 | 1007.5 |
| 20260508033517 | 53 | 315 | 0.0 | 1.7 | 0.00 | 0.00 | 0.00 | 74 | 1007.4 |
| 20260508032515 | 53 | 0.0 | 0.0 | 0.00 | 0.00 | 0.00 | 74 | 1007.6 | |
| 20260508031612 | 53 | 0.0 | 0.0 | 0.00 | 0.00 | 0.00 | 75 | 1007.6 | |
| 20260508030609 | 53 | 293 | 0.0 | 1.7 | 0.00 | 0.00 | 0.00 | 76 | 1007.7 |
| 20260508025607 | 53 | 0.0 | 0.0 | 0.00 | 0.00 | 0.00 | 76 | 1007.7 | |
| 20260508024604 | 53 | 0.0 | 0.0 | 0.00 | 0.00 | 0.00 | 77 | 1007.6 | |
| 20260508023602 | 53 | 0.0 | 0.0 | 0.00 | 0.00 | 0.00 | 77 | 1007.8 | |
| 20260508022559 | 54 | 0.0 | 0.0 | 0.00 | 0.00 | 0.00 | 76 | 1007.9 | |
| 20260508021556 | 54 | 0.0 | 1.7 | 0.00 | 0.00 | 0.00 | 74 | 1007.8 | |
| 20260508020554 | 55 | 248 | 0.0 | 1.7 | 0.00 | 0.00 | 0.00 | 73 | 1007.9 |
| 20260508015551 | 54 | 270 | 0.0 | 1.7 | 0.00 | 0.00 | 0.00 | 75 | 1008.0 |
| 20260508014549 | 55 | 271 | 0.9 | 1.7 | 0.00 | 0.00 | 0.00 | 75 | 1008.0 |
| 20260508013546 | 55 | 270 | 0.9 | 1.7 | 0.00 | 0.00 | 0.00 | 75 | 1008.1 |
| 20260508012543 | 55 | 259 | 0.0 | 1.7 | 0.00 | 0.00 | 0.00 | 77 | 1008.2 |
| 20260508011541 | 55 | 0.0 | 0.0 | 0.00 | 0.00 | 0.00 | 75 | 1008.3 | |
| 20260508010538 | 55 | 0.0 | 0.0 | 0.00 | 0.00 | 0.00 | 76 | 1008.4 | |
| 20260508005536 | 55 | 0.0 | 1.7 | 0.00 | 0.00 | 0.00 | 77 | 1008.4 | |
| 20260508004533 | 55 | 315 | 0.9 | 1.7 | 0.00 | 0.00 | 0.00 | 76 | 1008.4 |
| 20260508003530 | 55 | 0.0 | 1.7 | 0.00 | 0.00 | 0.00 | 78 | 1008.5 | |
| 20260508002528 | 55 | 248 | 0.0 | 1.7 | 0.00 | 0.00 | 0.00 | 76 | 1008.6 |
| 20260508001525 | 55 | 218 | 0.0 | 1.7 | 0.00 | 0.00 | 0.00 | 78 | 1008.7 |
| 20260508000522 | 56 | 0.0 | 1.7 | 0.00 | 0.00 | 0.00 | 73 | 1008.8 | |
| 20260507235520 | 56 | 272 | 0.9 | 1.7 | 0.00 | 0.00 | 0.00 | 75 | 1008.8 |
| 20260507234517 | 55 | 264 | 0.9 | 3.5 | 0.00 | 0.00 | 0.00 | 75 | 1009.0 |